Regional Weather Roundup
Issued by NWS

Home | Current Version | Previous Version | Text Only | Print | Product List | Glossary Off
Versions: 1 2 3 4 5 6 7 8 9 10 11 12 13 14 15 16 17 18 19 20 21 22 23 24 25 26 27 28 29 30 31 32 33 34 35 36 37 38 39 40 41 42 43 44 45 46 47 48 49 50

000
ASUS45 KBOU 271707
RWRCO

WEATHER ROUNDUP FOR COLORADO
NATIONAL WEATHER SERVICE DENVER/BOULDER CO
1100 AM MDT FRI MAY 27 2016

NOTE: "FAIR" INDICATES FEW OR NO CLOUDS BELOW 12000 FEET WITH NO
SIGNIFICANT WEATHER AND/OR OBSTRUCTIONS TO VISIBILITY.

COZ001>005-013-030-031-271800-
...NORTHWEST COLORADO...

CITY           SKY/WX    TMP DP  RH WIND       PRES   REMARKS
CRAIG          FAIR      55  41  59 VRB6      29.98F
HAYDEN         PTSUNNY   52  37  58 W7        29.99F
MEEKER         FAIR      56  39  53 SW7       29.98F
MOUNT WERNER   NOT AVBL
STEAMBOAT SPGS PTSUNNY   48  37  65 CALM      29.99F
WALDEN         PTSUNNY   50  30  46 N17G23    30.01F
$$

COZ006>008-011-271800-
...WEST CENTRAL VALLEYS...

CITY           SKY/WX    TMP DP  RH WIND       PRES   REMARKS
GRAND JUNCTION FAIR      64  37  36 SW8       29.93F
MONTROSE       FAIR      59  36  42 CALM      29.98F
EAGLE          MOSUNNY   50  43  76 CALM      30.01F
RIFLE          PTSUNNY   61  36  39 VRB3      29.94F
DELTA          NOT AVBL
NUCLA          FAIR      59  32  36 CALM      30.01F
$$

COZ017>023-064>068-271800-
...SOUTHWEST COLORADO...

CITY           SKY/WX    TMP DP  RH WIND       PRES   REMARKS
DURANGO        FAIR      61  31  32 SW9       29.95F
CORTEZ         FAIR      62  32  32 N14       29.96F
PAGOSA SPRINGS FAIR      55  29  36 N3        29.99S
TELLURIDE      PTSUNNY   45  34  66 CALM      30.08F
WOLF CREEK PAS PTSUNNY   34  23  64 NW8       30.16R WCI  27
$$

COZ009-010-012-014-032>034-037-058>063-271800-
...CENTRAL COLORADO...

CITY           SKY/WX    TMP DP  RH WIND       PRES   REMARKS
ASPEN          FAIR      50  36  58 VRB3      30.00F
BUENA VISTA    PTSUNNY   53  24  32 NW22G28   29.95R
COPPER MTN     NOT AVBL
BERTHOUD PASS  CLOUDY    23  14  68 MISG      30.09S
COTTONWOOD PAS PTSUNNY   45  25  45 W10G21    30.03R
GUNNISON       PTSUNNY   54  28  37 NE6       30.00S
KREMMLING      CLOUDY    52  30  43 W5        29.99S
LEADVILLE      CLOUDY    39  28  64 N20G25    30.03R
SALIDA         FAIR      55  34  46 SW6       30.01F
SUNLIGHT       FAIR      39  32  75 CALM      30.15R
WILKERSON PASS PTSUNNY   32  27  80 N12G25    30.08R WCI  23
$$

COZ069>075-271800-
...SAN LUIS VALLEY/SANGRE DE CRISTO MOUNTAINS...

CITY           SKY/WX    TMP DP  RH WIND       PRES   REMARKS
ALAMOSA        FAIR      49  38  65 VRB6      29.97S
LA VETA PASS   FOG       34  32  93 S7        30.02R VSB 1/4 WCI  28
SAGUACHE       FAIR      46  37  71 SE9       29.98S
$$

COZ035-036-038>040-271800-
...NORTHERN COLORADO FRONT RANGE...

CITY           SKY/WX    TMP DP  RH WIND       PRES   REMARKS
DENVER INTL AP LGT RAIN  49  44  83 N20G25    29.91R
DMNS CITY PARK   N/A     55  40  55 NE28      29.90R
AURORA         CLOUDY    52  46  79 N22G33    29.90S
FRONT RANGE AP LGT RAIN  46  45  93 N22G28    29.91R
ERIE MUNI ARPT PTSUNNY   56  41  57 NE22G29   29.90R
BOULDER MUN AP NOT AVBL
CENTENNIAL     PTSUNNY   53  42  66 N20G28    29.90S
BROOMFIELD     PTSUNNY   57  41  54 N28G36    29.90
FORT COLLINS   FAIR      45  45 100 N13G20    29.90F
LONGMONT       PTSUNNY   60  43  52 NE14G23   29.91R
$$

COZ041-046-047-076>085-087-088-271800-
...PIKES PEAK/PALMER DIVIDE AND SOUTHERN FOOTHILLS...

CITY           SKY/WX    TMP DP  RH WIND       PRES   REMARKS
COLO. SPRINGS  PTSUNNY   55  40  56 N32G41    29.86R
A. F. ACADEMY  FAIR      54  39  58 N33G45    29.86R
SCHRIEVER AFB  NOT AVBL
ELLICOTT       PTSUNNY  N/A N/A N/A N32G40    29.83S
FALCON         LGT RAIN  46  42  86 N20G37    29.88S
FORT CARSON    PTSUNNY   56  38  52 N21G32    29.84R
LIMON          LGT RAIN  47  45  93 N28G35    29.81S
MONUMENT HILL  CLOUDY    43  41  93 N18G28    29.91S
TRINIDAD       FAIR      57  42  57 W14       29.86F
$$

COZ042>045-048>051-090-091-271800-
...NORTHEAST COLORADO...

CITY           SKY/WX    TMP DP  RH WIND       PRES   REMARKS
GREELEY ARPT   CLOUDY    54  46  76 N13       29.90R
AKRON          CLOUDY    54  49  83 NE21G28   29.82R
BURLINGTON     CLOUDY    59  49  69 NE16      29.76R
WRAY           NOT AVBL
STERLING       FAIR      55  52  88 NE14      29.83R
HOLYOKE        NOT AVBL
FORT MORGAN    CLOUDY    50  46  86 N15G24    29.87R
$$

COZ086-089-092>099-271800-
...SOUTHEAST COLORADO...

CITY           SKY/WX    TMP DP  RH WIND       PRES   REMARKS
PUEBLO         PTSUNNY   57  44  62 N20       29.83R
LA JUNTA       LGT RAIN  53  49  86 NW18G28   29.79R
LAMAR          CLOUDY    56  47  71 W18       29.71F
SPRINGFIELD      N/A     57  41  55 W18G29    29.77F
$$



USA.gov is the U.S. government's official web portal to all federal, state and local government web resources and services.